Regional Weather Roundup
Issued by NWS

Home | Current Version | Previous Version | Text Only | Print | Product List | Glossary Off
Versions: 1 2 3 4 5 6 7 8 9 10 11 12 13 14 15 16 17 18 19 20 21 22 23 24 25 26 27 28 29 30 31 32 33 34 35 36 37 38 39 40 41 42 43 44 45 46 47 48 49 50

000
ASUS43 KFSD 240710
RWRSD

WEATHER ROUNDUP FOR SOUTH DAKOTA
NATIONAL WEATHER SERVICE SIOUX FALLS SD
200 AM CDT THU APR 24 2014

NOTE: "FAIR" INDICATES FEW OR NO CLOUDS BELOW 12,000 FEET WITH NO
SIGNIFICANT WEATHER AND/OR OBSTRUCTIONS TO VISIBILITY.


SDZ001>005-009-010-012>017-240800-
NORTHWEST AND NORTH CENTRAL SOUTH DAKOTA

CITY           SKY/WX    TMP DP  RH WIND       PRES   REMARKS
BUFFALO          N/A     36  25  64 W10       29.73S
FAITH            N/A     45  31  58 W10       29.78R
MOBRIDGE       CLEAR     37  35  92 N3        29.72S
$$

SDZ012>016-024>037-041>051-057-063-072>074-240800-
SOUTHWEST AND SOUTH CENTRAL SOUTH DAKOTA

CITY           SKY/WX    TMP DP  RH WIND       PRES   REMARKS
RAPID CTY ARPT MOCLDY    37  26  64 NW6       29.84R
PIERRE         MOCLDY    44  36  73 W9        29.76R
CUSTER         PTCLDY    33  19  56 W5        29.88R WCI  29
ELLSWORTH AFB  MOCLDY    40  28  60 W8        29.84R
PHILIP         CLOUDY    43  34  70 W8        29.81R
PINE RIDGE     CLOUDY    44  36  73 W5        29.85F
SPEARFISH      FAIR      39  19  45 W8        29.86R
WINNER         FAIR      51  37  58 NW14      29.76R
$$

SDZ004>011-016>023-039-040-240800-
NORTHEAST SOUTH DAKOTA

CITY           SKY/WX    TMP DP  RH WIND       PRES   REMARKS
ABERDEEN       CLOUDY    39  38  96 NE6       29.73F
WATERTOWN      CLOUDY    42  37  82 SE9       29.72S
SISSETON         N/A     41  39  93 SE12      29.75F
$$

SDZ017-020-022-023-036>040-048>070-240800-
SOUTHEAST SOUTH DAKOTA

CITY           SKY/WX    TMP DP  RH WIND       PRES   REMARKS
SIOUX FALLS    LGT RAIN  47  41  80 E10       29.69R
HURON          CLOUDY    49  40  71 SE9       29.69S
CHAMBERLAIN      N/A     53  38  56 NW15      29.73R
MITCHELL       CLOUDY    47  42  83 NE5       29.69R
YANKTON        CLOUDY    50  45  81 E7        29.65F
$$

ABBREVIATIONS USED IN REMARKS
   TC - TEMPERATURE IN CELSIUS
  WCI - WIND CHILL INDEX
   HX - HEAT INDEX
  VSB - VISIBILITY




USA.gov is the U.S. government's official web portal to all federal, state and local government web resources and services.